• In Hungary
  • List of Countries
  • For 7 days
  • Water Temperature
  • Satellite Maps
  • Weather Map
  • News
  • Weather Widgets
  • user-avatar
    Login

    Hourly Weather Pulau Bintan

    Today, 12 December, Tuesday

    Time Temperature Precipitation Wind Pressure Humidity
    00:00 +28°C° 0 mm 4 mps 756 mmHg 82%
    01:00 +28°C° 0 mm 3 mps 756 mmHg 81%
    02:00 +28°C° 0.5 mm 3 mps 756 mmHg 82%
    03:00 +28°C° 0.5 mm 4 mps 756 mmHg 83%
    04:00 +28°C° 0.5 mm 4 mps 756 mmHg 84%
    05:00 +28°C° 0.6 mm 4 mps 756 mmHg 83%
    06:00 +28°C° 0.6 mm 4 mps 756 mmHg 82%
    07:00 +28°C° 0 mm 3 mps 756 mmHg 82%
    08:00 +29°C° 0.3 mm 4 mps 756 mmHg 79%
    09:00 +30°C° 0.3 mm 4 mps 756 mmHg 75%
    10:00 +30°C° 0.3 mm 4 mps 757 mmHg 72%
    11:00 +32°C° 0.2 mm 4 mps 756 mmHg 70%
    12:00 +32°C° 0.2 mm 4 mps 756 mmHg 67%
    13:00 +33°C° 0 mm 3 mps 756 mmHg 68%
    14:00 +31°C° 0.6 mm 3 mps 755 mmHg 69%
    15:00 +31°C° 0.6 mm 3 mps 755 mmHg 71%
    16:00 +30°C° 0.6 mm 3 mps 755 mmHg 72%
    17:00 +30°C° 0.1 mm 3 mps 755 mmHg 75%
    18:00 +29°C° 0.1 mm 3 mps 755 mmHg 77%
    19:00 +28°C° 0 mm 3 mps 755 mmHg 80%
    20:00 +28°C° 0 mm 3 mps 755 mmHg 80%
    21:00 +28°C° 0 mm 2 mps 756 mmHg 80%
    22:00 +28°C° 0 mm 2 mps 756 mmHg 80%
    23:00 +28°C° 0.2 mm 2 mps 756 mmHg 81%

    Tomorrow, 13 December, Wednesday

    Time Temperature Precipitation Wind Pressure Humidity
    00:00 +28°C° 0.2 mm 2 mps 756 mmHg 81%
    01:00 +28°C° 0.2 mm 2 mps 756 mmHg 82%
    02:00 +28°C° 0.1 mm 2 mps 756 mmHg 82%
    03:00 +28°C° 0.1 mm 3 mps 755 mmHg 83%
    04:00 +28°C° 0.1 mm 3 mps 755 mmHg 83%
    05:00 +28°C° 0.6 mm 3 mps 755 mmHg 82%
    06:00 +28°C° 0.6 mm 3 mps 756 mmHg 82%
    07:00 +28°C° 0.6 mm 4 mps 756 mmHg 81%
    08:00 +29°C° 1.6 mm 4 mps 756 mmHg 78%
    09:00 +30°C° 1.6 mm 4 mps 756 mmHg 75%
    10:00 +30°C° 1.6 mm 4 mps 757 mmHg 71%
    11:00 +32°C° 1.1 mm 4 mps 756 mmHg 70%
    12:00 +32°C° 1.1 mm 4 mps 756 mmHg 69%
    13:00 +32°C° 1.1 mm 4 mps 755 mmHg 68%
    14:00 +32°C° 0.4 mm 4 mps 755 mmHg 70%
    15:00 +30°C° 0.4 mm 4 mps 755 mmHg 72%
    16:00 +30°C° 0.4 mm 4 mps 754 mmHg 75%
    17:00 +29°C° 0.2 mm 4 mps 755 mmHg 77%
    18:00 +29°C° 0.2 mm 3 mps 755 mmHg 79%
    19:00 +28°C° 0.2 mm 3 mps 755 mmHg 81%
    20:00 +28°C° 0.1 mm 3 mps 755 mmHg 81%
    21:00 +28°C° 0.1 mm 3 mps 756 mmHg 81%
    22:00 +28°C° 0.1 mm 3 mps 756 mmHg 81%
    23:00 +28°C° 0.1 mm 3 mps 756 mmHg 81%

    Day after tomorrow, 14 December, Thursday

    Time Temperature Precipitation Wind Pressure Humidity
    00:00 +28°C° 0.1 mm 4 mps 756 mmHg 81%
    01:00 +28°C° 0.1 mm 4 mps 755 mmHg 81%
    02:00 +28°C° 0.4 mm 4 mps 755 mmHg 81%
    03:00 +28°C° 0.4 mm 4 mps 755 mmHg 80%
    04:00 +28°C° 0.4 mm 4 mps 754 mmHg 80%
    05:00 +28°C° 0.1 mm 4 mps 755 mmHg 80%
    06:00 +28°C° 0.1 mm 4 mps 755 mmHg 79%
    07:00 +28°C° 0.1 mm 5 mps 755 mmHg 78%
    08:00 +29°C° 0 mm 4 mps 756 mmHg 74%
    09:00 +30°C° 0 mm 4 mps 756 mmHg 70%
    10:00 +32°C° 0 mm 4 mps 756 mmHg 65%
    11:00 +33°C° 0 mm 4 mps 756 mmHg 63%
    12:00 +34°C° 0 mm 3 mps 756 mmHg 61%
    13:00 +34°C° 0 mm 3 mps 755 mmHg 59%
    14:00 +34°C° 0.1 mm 3 mps 755 mmHg 62%
    15:00 +33°C° 0.1 mm 3 mps 754 mmHg 65%
    16:00 +31°C° 0.1 mm 3 mps 754 mmHg 67%
    17:00 +30°C° 0 mm 4 mps 754 mmHg 72%
    18:00 +30°C° 0 mm 4 mps 754 mmHg 76%
    19:00 +29°C° 0 mm 4 mps 755 mmHg 80%
    20:00 +29°C° 0 mm 4 mps 755 mmHg 80%
    21:00 +29°C° 0 mm 4 mps 756 mmHg 80%
    22:00 +29°C° 0 mm 4 mps 756 mmHg 80%
    23:00 +29°C° 0 mm 4 mps 756 mmHg 80%

    15 December, Friday

    Time Temperature Precipitation Wind Pressure Humidity
    00:00 +28°C° 0 mm 4 mps 755 mmHg 80%
    01:00 +28°C° 0 mm 4 mps 755 mmHg 80%
    02:00 +28°C° 0.2 mm 4 mps 754 mmHg 81%
    03:00 +28°C° 0.2 mm 4 mps 754 mmHg 82%
    04:00 +28°C° 0.2 mm 3 mps 754 mmHg 83%
    05:00 +28°C° 0.5 mm 3 mps 754 mmHg 83%
    06:00 +28°C° 0.5 mm 3 mps 754 mmHg 83%
    07:00 +28°C° 0.5 mm 3 mps 755 mmHg 82%
    08:00 +29°C° 0.1 mm 3 mps 755 mmHg 77%
    09:00 +31°C° 0.1 mm 3 mps 756 mmHg 71%
    10:00 +33°C° 0.1 mm 3 mps 756 mmHg 65%
    11:00 +33°C° 0.3 mm 3 mps 756 mmHg 65%
    12:00 +33°C° 0.3 mm 3 mps 755 mmHg 64%
    13:00 +34°C° 0.3 mm 3 mps 755 mmHg 63%
    14:00 +33°C° 0.6 mm 3 mps 754 mmHg 66%
    15:00 +31°C° 0.6 mm 3 mps 754 mmHg 70%
    16:00 +30°C° 0.6 mm 3 mps 753 mmHg 73%
    17:00 +30°C° 0.2 mm 4 mps 754 mmHg 76%
    18:00 +29°C° 0.2 mm 4 mps 754 mmHg 78%
    19:00 +28°C° 0.2 mm 4 mps 755 mmHg 81%
    20:00 +28°C° 0.4 mm 4 mps 756 mmHg 82%
    21:00 +28°C° 0.4 mm 4 mps 756 mmHg 82%
    22:00 +28°C° 0.4 mm 4 mps 757 mmHg 83%
    23:00 +28°C° 0.1 mm 4 mps 756 mmHg 83%

    16 December, Saturday

    Time Temperature Precipitation Wind Pressure Humidity
    00:00 +28°C° 0.1 mm 4 mps 756 mmHg 84%
    01:00 +28°C° 0.1 mm 4 mps 756 mmHg 84%
    02:00 +28°C° 0.2 mm 4 mps 755 mmHg 85%
    03:00 +28°C° 0.2 mm 3 mps 755 mmHg 85%
    04:00 +27°C° 0.2 mm 3 mps 755 mmHg 86%
    05:00 +28°C° 0.6 mm 3 mps 755 mmHg 85%
    06:00 +28°C° 0.6 mm 3 mps 756 mmHg 85%
    07:00 +28°C° 0.6 mm 3 mps 756 mmHg 84%
    08:00 +29°C° 0.1 mm 4 mps 757 mmHg 79%
    09:00 +30°C° 0.1 mm 4 mps 757 mmHg 75%
    10:00 +32°C° 0.1 mm 4 mps 757 mmHg 71%
    11:00 +32°C° 0.1 mm 4 mps 757 mmHg 68%
    12:00 +33°C° 0.1 mm 5 mps 756 mmHg 65%
    13:00 +33°C° 0.1 mm 5 mps 755 mmHg 62%
    14:00 +33°C° 0.3 mm 5 mps 755 mmHg 65%
    15:00 +32°C° 0.3 mm 5 mps 754 mmHg 68%
    16:00 +32°C° 0.3 mm 5 mps 754 mmHg 71%
    17:00 +30°C° 0.4 mm 5 mps 755 mmHg 74%
    18:00 +29°C° 0.4 mm 5 mps 755 mmHg 76%
    19:00 +28°C° 0.4 mm 5 mps 756 mmHg 79%
    20:00 +28°C° 0.1 mm 5 mps 756 mmHg 80%
    21:00 +28°C° 0.1 mm 5 mps 757 mmHg 80%
    22:00 +28°C° 0.1 mm 5 mps 757 mmHg 81%
    23:00 +28°C° 0.2 mm 5 mps 757 mmHg 81%

    17 December, Sunday

    Time Temperature Precipitation Wind Pressure Humidity
    00:00 +28°C° 0.2 mm 5 mps 756 mmHg 81%
    01:00 +28°C° 0.2 mm 5 mps 756 mmHg 81%
    02:00 +28°C° 0.1 mm 5 mps 756 mmHg 81%
    03:00 +28°C° 0.1 mm 5 mps 755 mmHg 80%
    04:00 +28°C° 0.1 mm 5 mps 755 mmHg 80%
    05:00 +28°C° 0.2 mm 5 mps 756 mmHg 80%
    06:00 +28°C° 0.2 mm 5 mps 756 mmHg 80%
    07:00 +28°C° 0.2 mm 5 mps 757 mmHg 80%
    08:00 +29°C° 0 mm 5 mps 757 mmHg 75%
    09:00 +30°C° 0 mm 5 mps 757 mmHg 69%
    10:00 +33°C° 0 mm 6 mps 757 mmHg 64%
    11:00 +33°C° 0 mm 6 mps 757 mmHg 62%
    12:00 +33°C° 0 mm 6 mps 756 mmHg 61%
    13:00 +33°C° 0 mm 6 mps 756 mmHg 60%
    14:00 +33°C° 0 mm 6 mps 755 mmHg 61%
    15:00 +33°C° 0 mm 6 mps 755 mmHg 62%
    16:00 +32°C° 0 mm 6 mps 754 mmHg 63%
    17:00 +30°C° 0 mm 6 mps 755 mmHg 66%
    18:00 +30°C° 0 mm 6 mps 755 mmHg 70%
    19:00 +29°C° 0 mm 6 mps 756 mmHg 73%
    20:00 +29°C° 0 mm 5 mps 756 mmHg 74%
    21:00 +29°C° 0 mm 5 mps 757 mmHg 75%
    22:00 +28°C° 0 mm 5 mps 757 mmHg 76%
    23:00 +28°C° 0.1 mm 5 mps 757 mmHg 78%
    Show more